Weather History for KOZW - February, 2014

Change the Weather History Date:

Monday, February 3, 2014

  Actual Average Record
Temperature  
Mean Temperature 9 °F -  
Max Temperature 20 °F 32 °F 50 °F (2004)
Min Temperature -2 °F 19 °F -2 °F (2014)
Degree Days  
Heating Degree Days 56    
Moisture  
Dew Point 4 °F    
Average Humidity 80    
Maximum Humidity 93    
Minimum Humidity 57    
Precipitation  
Precipitation 0.00 in - - ()
Sea Level Pressure  
Sea Level Pressure 30.29 in    
Wind  
Wind Speed 2 mph (West)    
Max Wind Speed 8 mph    
Max Gust Speed -    
Visibility 8 miles    
Events Fog    
Averages and records for this station are not official NWS values.
T = Trace of Precipitation, MM = Missing Value Source: NWS Daily Summary

Daily Weather History Graph

Daily Weather History Graph

Search for Another Location

Airport or City:

Trip Planner

Search our weather history database for the weather conditions in past years. The results will help you decide how hot, cold, wet, or windy it might be!

Date:

Astronomy

Feb. 03, 2014 Rise Set
Actual Time 7:47 AM EST 5:52 PM EST
Civil Twilight 7:18 AM EST 6:21 PM EST
Nautical Twilight 6:44 AM EST 6:55 PM EST
Astronomical Twilight 6:11 AM EST 7:28 PM EST
Moon 9:42 AM EST (2/3) 10:49 PM EST (2/3)
Length of Visible Light 11h 03m
Length of Day
10h 04m
Waxing Crescent, 19% of the Moon is Illuminated
Feb 3
Waxing Crescent
Feb 6
First Quarter
Feb 14
Full
Feb 22
Last Quarter
Mar 1
New

Hourly Weather History & Observations

Time (EST) Temp. Windchill Dew Point Humidity Pressure Visibility Wind Dir Wind Speed Gust Speed Precip Events Conditions
12:15 AM 11.5 °F 5.3 °F 8.8 °F 89% 30.23 in 7.0 mi WSW 3.5 mph - N/A   Clear
12:35 AM 10.6 °F 4.3 °F 7.7 °F 88% 30.24 in 7.0 mi West 3.5 mph - N/A   Clear
12:55 AM 9.7 °F 1.4 °F 7.9 °F 92% 30.24 in 7.0 mi West 4.6 mph - N/A   Clear
1:14 AM 9.7 °F 3.2 °F 7.0 °F 89% 30.22 in 10.0 mi NNW 3.5 mph - N/A   Clear
1:35 AM 9.7 °F 1.4 °F 7.2 °F 90% 30.23 in 10.0 mi NW 4.6 mph - N/A   Clear
1:55 AM 9.1 °F - 6.3 °F 88% 30.24 in 10.0 mi Calm Calm - N/A   Clear
2:14 AM 8.6 °F - 6.6 °F 92% 30.24 in 10.0 mi Calm Calm - N/A   Clear
2:35 AM 7.0 °F - 4.5 °F 89% 30.24 in 10.0 mi Calm Calm - N/A   Clear
2:55 AM 7.2 °F - 5.0 °F 91% 30.25 in 7.0 mi Calm Calm - N/A   Clear
3:15 AM 6.3 °F -0.7 °F 4.3 °F 92% 30.24 in 7.0 mi NW 3.5 mph - N/A   Clear
3:35 AM 6.6 °F -2.2 °F 4.6 °F 92% 30.24 in 7.0 mi WNW 4.6 mph - N/A   Clear
3:55 AM 2.7 °F - 0.1 °F 89% 30.24 in 7.0 mi Calm Calm - N/A   Clear
4:15 AM 4.3 °F - 2.1 °F 91% 30.24 in 7.0 mi Calm Calm - N/A   Clear
4:35 AM 4.3 °F - 2.1 °F 91% 30.24 in 7.0 mi Calm Calm - N/A   Clear
4:55 AM -1.3 °F - -4.4 °F 87% 30.24 in 5.0 mi Calm Calm - N/A   Clear
5:15 AM 1.9 °F - -0.6 °F 89% 30.23 in 1.8 mi Calm Calm - N/A   Mist
5:35 AM 2.5 °F - -0.2 °F 88% 30.25 in 0.2 mi Calm Calm - N/A Fog Light Freezing Fog
5:54 AM 2.3 °F - -0.4 °F 88% 30.23 in 1.0 mi Calm Calm - N/A   Mist
6:15 AM 2.3 °F - -0.4 °F 88% 30.23 in 7.0 mi Calm Calm - N/A   Clear
6:35 AM 2.3 °F - -0.4 °F 88% 30.24 in 7.0 mi Calm Calm - N/A   Clear
6:54 AM -1.5 °F - -4.2 °F 88% 30.25 in 7.0 mi Calm Calm - N/A   Clear
7:15 AM -2.2 °F - -5.4 °F 86% 30.27 in 5.0 mi Calm Calm - N/A   Clear
7:35 AM -1.1 °F - -4.2 °F 87% 30.28 in 5.0 mi Calm Calm - N/A   Clear
7:55 AM -2.6 °F - -6.0 °F 85% 30.28 in 5.0 mi Calm Calm - N/A   Clear
8:15 AM -2.2 °F - -5.3 °F 87% 30.28 in 5.0 mi Calm Calm - N/A   Clear
8:35 AM -0.8 °F - -4.0 °F 86% 30.29 in 5.0 mi Calm Calm - N/A   Clear
8:55 AM -0.0 °F -9.9 °F -3.1 °F 87% 30.30 in 5.0 mi WNW 4.6 mph - N/A   Clear
9:15 AM 3.2 °F - 0.5 °F 89% 30.30 in 4.0 mi Calm Calm - N/A   Clear
9:35 AM 5.2 °F - 2.7 °F 89% 30.30 in 4.0 mi Calm Calm - N/A   Clear
9:55 AM 7.7 °F - 5.2 °F 89% 30.31 in 4.0 mi Calm Calm - N/A   Clear
10:15 AM 6.3 °F - 3.7 °F 89% 30.32 in 5.0 mi Calm Calm - N/A   Clear
10:35 AM 9.5 °F - 7.5 °F 92% 30.32 in 5.0 mi Calm Calm - N/A   Clear
10:55 AM 11.8 °F 3.9 °F 9.7 °F 91% 30.32 in 7.0 mi WNW 4.6 mph - N/A   Clear
11:15 AM 12.9 °F - 11.1 °F 93% 30.33 in 10.0 mi Calm Calm - N/A   Clear
11:35 AM 12.2 °F - 10.0 °F 91% 30.32 in 10.0 mi Calm Calm - N/A   Clear
11:55 AM 15.6 °F - 11.1 °F 82% 30.31 in 3.0 mi Calm Calm - N/A   Clear
12:15 PM 17.8 °F 12.5 °F 9.3 °F 69% 30.30 in 7.0 mi WNW 3.5 mph - N/A   Clear
12:34 PM 19.6 °F 14.5 °F 9.5 °F 65% 30.29 in 10.0 mi West 3.5 mph - N/A   Clear
12:55 PM 18.7 °F - 9.0 °F 66% 30.28 in 10.0 mi Calm Calm - N/A   Clear
1:15 PM 18.7 °F 13.5 °F 8.6 °F 65% 30.29 in 10.0 mi WNW 3.5 mph - N/A   Clear
1:34 PM 20.7 °F - 9.5 °F 62% 30.29 in 10.0 mi Calm Calm - N/A   Clear
1:55 PM 20.3 °F 13.8 °F 8.6 °F 61% 30.28 in 10.0 mi WSW 4.6 mph - N/A   Clear
2:15 PM 20.1 °F 12.3 °F 8.2 °F 60% 30.28 in 10.0 mi WSW 5.8 mph - N/A   Clear
2:35 PM 20.7 °F - 8.2 °F 59% 30.28 in 10.0 mi Calm Calm - N/A   Clear
2:55 PM 20.3 °F 11.5 °F 8.1 °F 59% 30.29 in 10.0 mi WSW 6.9 mph - N/A   Clear
3:15 PM 19.9 °F 10.1 °F 8.1 °F 60% 30.29 in 10.0 mi WSW 8.1 mph - N/A   Clear
3:35 PM 20.3 °F 10.6 °F 8.1 °F 59% 30.30 in 10.0 mi WSW 8.1 mph - N/A   Clear
3:55 PM 20.7 °F 13.0 °F 7.7 °F 57% 30.30 in 10.0 mi West 5.8 mph - N/A   Clear
4:15 PM 19.9 °F 12.1 °F 7.9 °F 60% 30.31 in 10.0 mi WSW 5.8 mph - N/A   Clear
4:35 PM 19.8 °F 13.2 °F 7.9 °F 60% 30.31 in 10.0 mi WSW 4.6 mph - N/A   Clear
4:55 PM 20.3 °F 13.8 °F 8.1 °F 59% 30.32 in 10.0 mi West 4.6 mph - N/A   Clear
5:14 PM 19.8 °F 13.2 °F 7.3 °F 59% 30.31 in 10.0 mi West 4.6 mph - N/A   Clear
5:35 PM 18.1 °F - 6.8 °F 61% 30.30 in 10.0 mi Calm Calm - N/A   Clear
5:55 PM 17.8 °F - 6.8 °F 62% 30.30 in 10.0 mi Calm Calm - N/A   Clear
6:14 PM 16.3 °F - 6.1 °F 64% 30.31 in 10.0 mi Calm Calm - N/A   Clear
6:35 PM 14.4 °F - 6.1 °F 70% 30.31 in 10.0 mi Calm Calm - N/A   Clear
6:55 PM 15.6 °F - 7.0 °F 69% 30.31 in 10.0 mi Calm Calm - N/A   Clear
7:14 PM 14.5 °F - 7.7 °F 74% 30.32 in 10.0 mi Calm Calm - N/A   Clear
7:35 PM 12.6 °F - 6.3 °F 76% 30.31 in 10.0 mi Calm Calm - N/A   Clear
7:55 PM 13.3 °F - 6.3 °F 74% 30.30 in 10.0 mi Calm Calm - N/A   Clear
8:15 PM 11.8 °F - 5.9 °F 77% 30.31 in 10.0 mi Calm Calm - N/A   Clear
8:35 PM 10.8 °F - 5.9 °F 81% 30.30 in 10.0 mi Calm Calm - N/A   Clear
8:55 PM 10.4 °F - 6.3 °F 83% 30.32 in 7.0 mi Calm Calm - N/A   Clear
9:14 PM 7.9 °F - 4.5 °F 86% 30.32 in 7.0 mi Calm Calm - N/A   Clear
9:35 PM 7.2 °F - 3.0 °F 83% 30.32 in 7.0 mi Calm Calm - N/A   Clear
9:55 PM 5.9 °F - 3.0 °F 88% 30.33 in 7.0 mi Calm Calm - N/A   Clear
10:15 PM 4.1 °F - 1.6 °F 89% 30.33 in 7.0 mi Calm Calm - N/A   Clear
10:35 PM 4.6 °F - 2.1 °F 89% 30.34 in 7.0 mi Calm Calm - N/A   Clear
10:55 PM 4.1 °F - 1.8 °F 90% 30.35 in 7.0 mi Calm Calm - N/A   Clear
11:14 PM 4.5 °F - 1.8 °F 89% 30.34 in 7.0 mi Calm Calm - N/A   Clear
11:35 PM 4.1 °F - 1.4 °F 89% 30.34 in 7.0 mi Calm Calm - N/A   Clear
11:55 PM 4.1 °F - 1.8 °F 90% 30.34 in 7.0 mi Calm Calm - N/A   Clear